VK4VP-5 Buderim QLD AU current weather conditions

sailwx.info

Wind from 223 at 3 knots gusting 8

Air temperature 17.2° C
Dewpoint 10.3° C

Last reported at 2015-Aug-03 22:41 UTC.
Time now 2015-Aug-03 23:20 UTC

Location: S 26°42' E 153°05'.
View on Google Maps.

See reports from other nearby stations

  
Tides and Currents Weather Stations Pressure Air Temp Water Temp Dewpoint Dewpoint Depression Visibility Wind Speed Wind Dir Waves Ship Positions
date/time (UTC)wind fromknots sea level pressurealtimeterstation pressurevisibilityair tempwater tempwave heightnotes
2015-Aug-03 22:41 223 3 gusting 8 17.2
2015-Aug-03 22:31 218 3 gusting 9 16.7
2015-Aug-03 22:21 217 3 gusting 8 15.6
2015-Aug-03 22:11 217 2 gusting 7 15.6
2015-Aug-03 22:01 241 3 gusting 9 15.6
2015-Aug-03 21:51 309 2 gusting 5 15.6
2015-Aug-03 21:41 311 1 gusting 5 15.0
2015-Aug-03 21:31 312 0 gusting 5 14.4
2015-Aug-03 21:21 312 2 gusting 5 14.4
2015-Aug-03 21:11 318 0 gusting 2 13.9
2015-Aug-03 21:01 355 13.3
2015-Aug-03 20:51 355 13.3
2015-Aug-03 20:41 325 13.3
2015-Aug-03 20:31 238 13.3
2015-Aug-03 20:21 238 13.3
2015-Aug-03 20:11 13.3
2015-Aug-03 20:01 238 13.9
2015-Aug-03 19:51 238 13.9
2015-Aug-03 19:41 238 13.9
2015-Aug-03 19:31 238 13.9
2015-Aug-03 19:21 238 13.9
2015-Aug-03 19:11 238 13.9
2015-Aug-03 19:01 238 14.4
2015-Aug-03 18:51 14.4
2015-Aug-03 18:41 14.4
2015-Aug-03 18:31 14.4
2015-Aug-03 18:21 14.4
2015-Aug-03 18:11 15.0
2015-Aug-03 18:01 15.0
2015-Aug-03 17:51 238 15.0
2015-Aug-03 17:41 238 15.0
2015-Aug-03 17:31 238 15.0
2015-Aug-03 17:21 238 0 gusting 3 15.6
2015-Aug-03 17:11 238 15.6
2015-Aug-03 17:01 238 16.1
2015-Aug-03 16:51 238 16.1
2015-Aug-03 16:41 238 1 gusting 3 16.1
2015-Aug-03 16:31 238 0 gusting 3 16.1
2015-Aug-03 16:21 238 0 gusting 5 16.1
2015-Aug-03 16:11 238 16.1
2015-Aug-03 16:01 236 0 gusting 8 16.1
2015-Aug-03 15:51 215 0 gusting 5 16.1
2015-Aug-03 15:41 216 2 gusting 11 16.1
2015-Aug-03 15:31 248 3 gusting 9 16.1
2015-Aug-03 15:21 284 2 gusting 6 16.1
2015-Aug-03 15:11 285 16.1
2015-Aug-03 15:01 286 0 gusting 5 16.7
2015-Aug-03 14:51 290 1 gusting 5 16.7
2015-Aug-03 14:41 295 0 gusting 5 16.1
2015-Aug-03 14:31 295 15.6
2015-Aug-03 14:21 295 15.6
2015-Aug-03 14:11 295 15.0
2015-Aug-03 14:01 295 15.0
2015-Aug-03 13:51 294 15.0
2015-Aug-03 13:41 295 15.6
2015-Aug-03 13:31 295 15.6
2015-Aug-03 13:21 15.6
2015-Aug-03 13:11 16.1
2015-Aug-03 13:01 16.1
2015-Aug-03 12:51 16.7
2015-Aug-03 12:41 16.7
2015-Aug-03 12:31 16.7
2015-Aug-03 12:21 17.2
2015-Aug-03 12:11 17.2
2015-Aug-03 12:01 17.8
2015-Aug-03 11:51 18.3
2015-Aug-03 11:41 295 18.9
2015-Aug-03 11:31 295 19.4
2015-Aug-03 11:21 295 0 gusting 2 20.0
2015-Aug-03 11:11 289 1 gusting 7 21.1
2015-Aug-03 11:01 286 0 gusting 3 20.0
2015-Aug-03 10:51 287 19.4
2015-Aug-03 10:41 286 19.4
2015-Aug-03 10:31 286 19.4
2015-Aug-03 10:21 286 19.4
2015-Aug-03 10:11 286 20.0
2015-Aug-03 10:01 286 20.0
2015-Aug-03 09:51 286 0 gusting 5 20.6
2015-Aug-03 09:41 244 1 gusting 6 20.6
2015-Aug-03 09:31 338 2 gusting 8 20.0
2015-Aug-03 09:21 010 3 gusting 9 20.0
2015-Aug-03 09:11 012 3 gusting 8 20.0
2015-Aug-03 09:01 011 4 gusting 9 20.6
2015-Aug-03 08:51 011 5 gusting 12 20.6
2015-Aug-03 08:41 004 6 gusting 13 21.1
2015-Aug-03 08:31 351 6 gusting 11 21.1
2015-Aug-03 08:21 348 5 gusting 9 21.1
2015-Aug-03 08:11 348 5 gusting 10 21.1
2015-Aug-03 08:01 008 4 gusting 8 20.6
2015-Aug-03 07:51 017 3 gusting 8 20.6
2015-Aug-03 07:41 017 3 gusting 7 20.6
2015-Aug-03 07:31 016 3 gusting 7 20.6
2015-Aug-03 07:21 018 3 gusting 8 20.6
2015-Aug-03 07:11 019 5 gusting 9 21.1
2015-Aug-03 07:01 016 5 gusting 9 21.1
2015-Aug-03 06:51 020 6 gusting 10 21.7
2015-Aug-03 06:41 024 5 gusting 9 21.7
2015-Aug-03 06:31 025 6 gusting 10 21.7
2015-Aug-03 06:21 015 5 gusting 10 22.2
2015-Aug-03 06:11 027 4 gusting 11 22.2
2015-Aug-03 06:01 021 6 gusting 11 22.2
2015-Aug-03 05:51 027 5 gusting 11 22.8
2015-Aug-03 05:41 011 7 gusting 11 22.2
2015-Aug-03 05:31 026 5 gusting 8 22.8
2015-Aug-03 05:21 032 5 gusting 10 23.3
2015-Aug-03 05:11 033 4 gusting 9 23.3
2015-Aug-03 05:01 032 6 gusting 11 23.3
2015-Aug-03 04:51 035 5 gusting 9 23.3
2015-Aug-03 04:41 042 4 gusting 8 23.3
2015-Aug-03 04:31 026 5 gusting 9 23.3
2015-Aug-03 04:21 045 2 gusting 8 24.4
2015-Aug-03 04:11 036 5 gusting 9 23.9
2015-Aug-03 04:01 036 2 gusting 8 24.4
2015-Aug-03 03:51 008 4 gusting 8 25.0
2015-Aug-03 03:41 344 1 gusting 7 25.0
2015-Aug-03 03:31 302 2 gusting 8 25.0
2015-Aug-03 03:21 314 3 gusting 10 24.4
2015-Aug-03 03:11 304 2 gusting 9 24.4
2015-Aug-03 03:01 333 4 gusting 11 24.4
2015-Aug-03 02:51 334 2 gusting 8 24.4
2015-Aug-03 02:41 320 2 gusting 8 23.9
2015-Aug-03 02:31 343 6 gusting 13 23.9
2015-Aug-03 02:21 007 4 gusting 9 23.9
2015-Aug-03 02:11 012 2 gusting 8 23.9
2015-Aug-03 02:01 342 3 gusting 8 23.3
2015-Aug-03 01:51 351 1 gusting 8 23.3
2015-Aug-03 01:41 338 5 gusting 12 22.8
2015-Aug-03 01:31 345 5 gusting 11 22.8
2015-Aug-03 01:21 350 4 gusting 12 22.2
2015-Aug-03 01:11 343 5 gusting 10 22.2
2015-Aug-03 01:01 330 5 gusting 9 22.2
2015-Aug-03 00:51 331 6 gusting 11 21.7
2015-Aug-03 00:41 321 4 gusting 15 21.7
2015-Aug-03 00:31 334 6 gusting 13 21.1
2015-Aug-03 00:21 345 6 gusting 12 21.1
2015-Aug-03 00:11 334 6 gusting 16 21.1
2015-Aug-03 00:01 353 6 gusting 15 21.1
2015-Aug-02 23:51 345 5 gusting 11 21.1
2015-Aug-02 23:41 341 5 gusting 16 20.6
2015-Aug-02 23:31 340 6 gusting 16 20.6
2015-Aug-02 23:21 348 8 gusting 15 20.0
2015-Aug-02 23:11 346 6 gusting 14 20.0
2015-Aug-02 23:01 336 6 gusting 16 19.4
2015-Aug-02 22:51 344 6 gusting 12 19.4
2015-Aug-02 22:41 343 5 gusting 11 18.9
2015-Aug-02 22:31 340 6 gusting 15 18.9
2015-Aug-02 22:21 333 6 gusting 14 18.3
2015-Aug-02 22:11 336 6 gusting 17 18.3
2015-Aug-02 22:01 338 5 gusting 11 18.3
2015-Aug-02 21:51 341 5 gusting 9 17.8
2015-Aug-02 21:41 336 4 gusting 10 17.8
2015-Aug-02 21:31 352 3 gusting 8 17.8
2015-Aug-02 21:21 351 4 gusting 11 17.2
2015-Aug-02 21:11 339 6 gusting 11 17.2
2015-Aug-02 21:01 340 5 gusting 10 17.2
2015-Aug-02 20:51 338 4 gusting 10 16.7
2015-Aug-02 20:41 340 4 gusting 10 16.7
2015-Aug-02 20:31 339 4 gusting 10 16.7
2015-Aug-02 20:21 331 4 gusting 10 16.7
2015-Aug-02 20:11 328 6 gusting 10 16.7
2015-Aug-02 20:01 336 4 gusting 10 16.7
2015-Aug-02 19:51 339 3 gusting 8 16.7
2015-Aug-02 19:41 340 3 gusting 7 16.7
2015-Aug-02 19:31 337 5 gusting 9 16.7
2015-Aug-02 19:21 332 5 gusting 14 16.7
2015-Aug-02 19:11 333 6 gusting 12 16.7
2015-Aug-02 19:01 336 6 gusting 10 16.7
2015-Aug-02 18:51 329 5 gusting 12 16.7
2015-Aug-02 18:41 332 4 gusting 10 16.7
2015-Aug-02 18:31 330 3 gusting 8 16.7
2015-Aug-02 18:21 329 3 gusting 8 16.7
2015-Aug-02 18:11 330 2 gusting 6 16.7
2015-Aug-02 18:01 330 2 gusting 6 16.7
2015-Aug-02 17:51 329 2 gusting 8 16.7
2015-Aug-02 17:41 327 2 gusting 8 16.7
2015-Aug-02 17:31 325 4 gusting 8 16.7
2015-Aug-02 17:21 323 3 gusting 8 16.7
2015-Aug-02 17:11 324 4 gusting 9 16.7
2015-Aug-02 17:01 324 4 gusting 9 16.7
2015-Aug-02 16:51 330 4 gusting 10 16.7
2015-Aug-02 16:41 337 4 gusting 10 16.1
2015-Aug-02 16:31 338 3 gusting 8 16.1
2015-Aug-02 16:21 338 3 gusting 7 16.1
2015-Aug-02 16:11 338 3 gusting 7 16.7
2015-Aug-02 16:01 338 2 gusting 6 16.7
2015-Aug-02 15:51 338 3 gusting 8 16.7
2015-Aug-02 15:41 338 3 gusting 7 16.7
2015-Aug-02 15:31 337 4 gusting 7 17.2
2015-Aug-02 15:21 339 4 gusting 8 17.2
2015-Aug-02 15:11 356 4 gusting 8 17.2
2015-Aug-02 15:01 013 3 gusting 7 16.1
2015-Aug-02 14:51 013 2 gusting 3 15.6
2015-Aug-02 14:41 014 14.4
2015-Aug-02 14:31 013 0 gusting 2 14.4
2015-Aug-02 14:21 013 13.9
2015-Aug-02 14:11 13.9
2015-Aug-02 14:01 14.4
2015-Aug-02 13:51 014 14.4
2015-Aug-02 13:41 013 14.4
2015-Aug-02 13:31 14.4
2015-Aug-02 13:21 15.0
2015-Aug-02 13:11 014 15.0
2015-Aug-02 13:01 014 15.6
2015-Aug-02 12:51 013 15.6
2015-Aug-02 12:41 014 16.1
2015-Aug-02 12:31 014 16.1
2015-Aug-02 12:21 014 16.7
2015-Aug-02 12:11 014 16.7
2015-Aug-02 12:01 014 17.2
2015-Aug-02 11:51 014 17.2
2015-Aug-02 11:41 013 17.8
2015-Aug-02 11:31 014 17.8
2015-Aug-02 11:21 013 0 gusting 6 17.8
2015-Aug-02 11:11 013 17.8
2015-Aug-02 11:01 014 18.3
2015-Aug-02 10:51 013 0 gusting 3 18.3
2015-Aug-02 05:48 023 4 gusting 9 21.7
2015-Aug-02 05:40 039 5 gusting 8 21.7
2015-Aug-02 05:27 031 5 gusting 14 21.7
2015-Aug-02 05:17 035 5 gusting 12 21.7
2015-Aug-02 05:16 034 5 gusting 12 21.7
2015-Aug-02 05:06 025 3 gusting 10 21.7
2015-Aug-02 04:56 037 3 gusting 8 21.7
2015-Aug-02 02:50 030 2 gusting 8 23.3
2015-Aug-02 02:40 029 4 gusting 10 22.8
2015-Aug-02 02:30 346 4 gusting 8 22.8
2015-Aug-02 02:20 343 5 gusting 11 22.8
2015-Aug-02 02:10 339 3 gusting 8 22.8
2015-Aug-02 02:00 344 5 gusting 13 22.2
2015-Aug-02 01:50 339 4 gusting 10 22.2
2015-Aug-02 01:40 323 5 gusting 11 21.7
2015-Aug-02 01:30 314 3 gusting 11 22.2
2015-Aug-02 01:20 329 5 gusting 9 21.7
2015-Aug-02 01:10 333 6 gusting 10 21.7
2015-Aug-02 01:00 320 6 gusting 11 21.1
2015-Aug-02 00:50 330 6 gusting 14 21.7
2015-Aug-02 00:40 339 4 gusting 12 21.7
2015-Aug-02 00:30 327 4 gusting 9 21.7
2015-Aug-02 00:20 002 3 gusting 11 21.7
2015-Aug-02 00:10 343 2 gusting 6 21.1
2015-Aug-01 23:36 314 4 gusting 11 20.0
2015-Aug-01 23:30 303 3 gusting 8 20.0
2015-Aug-01 23:00 295 2 gusting 8 19.4